Location: Unspecified
(39.1734°N, 0.0000°E)
Time: 04:20:10
(UTC+00:00)

Tiangong 2 - Visible Passes

Search period start: 26 May 2019 00:00
Search period end: 05 June 2019 00:00
Orbit: 379 x 387 km, 42.8° (Epoch: 25 May)

Date Brightness Start Highest point End Pass type
(mag) Time Alt. Az. Time Alt. Az. Time Alt. Az.
26 May 2.3 19:46:34 10° WNW 19:49:33 40° N 19:52:32 10° ENE visible
26 May 1.3 21:23:24 10° WNW 21:26:28 64° N 21:26:28 64° N visible
27 May 1.9 20:23:21 10° WNW 20:26:25 47° N 20:29:00 13° E visible
27 May 3.4 22:00:06 10° WNW 22:01:11 19° W 22:01:11 19° W visible
28 May 0.9 21:00:01 10° WNW 21:03:08 85° SSW 21:03:43 56° ESE visible
29 May 1.4 19:59:57 10° WNW 20:03:04 63° NNE 20:06:10 10° E visible
29 May 3.0 21:36:53 10° W 21:38:25 21° WSW 21:38:25 21° WSW visible
30 May 1.4 20:36:37 10° WNW 20:39:41 51° SSW 20:40:59 28° SE visible
31 May 3.2 21:13:58 10° WSW 21:15:44 16° SW 21:15:44 16° SW visible
01 Jun 2.4 20:13:22 10° W 20:16:09 29° SSW 20:18:21 14° SSE visible
03 Jun 3.3 19:50:24 10° WSW 19:52:31 17° SW 19:54:38 10° S visible
